1276300834229,2.88648
1276300894229,2.94501
1276300954229,2.90425
1276301014229,2.91159
1276301074229,2.91751
1276301134229,2.87844
1276301194229,2.90370
1276301254229,2.88638
1276301314229,2.84343
1276301374229,2.89034
1276301434229,2.89713
1276301494229,2.88936
1276301554229,2.87829
1276301614229,2.88177
1276301674229,2.89431
1276301734229,2.87299
1276301794229,2.88699
1276301854229,2.89366
1276301914229,2.89111
1276301974229,2.86971
1276302034229,2.86793
1276302094229,2.88089
1276302154229,2.88871
1276302214229,2.89959
1276302274229,2.90671
1276302334229,2.87980
1276302394229,2.87645
1276302454229,2.91216
1276302514229,2.89062
1276302574229,2.89100
1276302634229,2.88740
1276302694229,2.88456
1276302754229,2.92443
1276302814229,2.94188
1276302874229,2.91977
1276302934229,2.90756
1276302994229,2.94283
1276303054229,2.93465
1276303114229,2.93182
1276303174229,2.94398
1276303234229,2.93604
1276303294229,2.91495
1276303354229,2.93576
1276303414229,2.90365
1276303474229,2.88660
1276303534229,2.94038
1276303594229,2.92983
1276303654229,2.90773
1276303714229,2.92695
1276303774229,2.91729
1276303834229,2.96240
1276303894229,2.94905
1276303954229,2.93501
1276304014229,2.96140
1276304074229,3.00031
1276304134229,3.26367
1276304194229,3.90652
1276304254229,4.78274
1276304314229,4.89700
1276304374229,4.72639
1276304434239,4.55308
1276304494239,4.30841
1276304554239,3.98844
1276304614239,3.75237
1276304674239,3.62889
1276304734239,3.49369
1276304794239,3.35629
1276304854239,3.30906
1276304914239,3.21512
1276304974239,3.17132
1276305034239,3.12469
1276305094239,3.08364
1276305154239,3.04659
1276305214239,3.04694
1276305274239,3.01763
1276305334239,2.97427
1276305394239,2.97327
1276305454239,2.95370
1276305514239,2.94391
1276305574239,2.94738
1276305634239,2.94560
1276305694239,2.90822
1276305754239,2.93478
1276305814239,2.91497
1276305874239,2.91116
1276305934239,2.88574
1276305994239,2.90210
1276306054239,2.88980
1276306114239,2.87799
1276306174239,2.89245
1276306234239,2.91145
1276306294239,2.87753
1276306354239,2.87741
1276306414239,2.86979
1276306474239,2.86234
1276306534239,2.89339
1276306594239,2.91180
1276306654239,2.88428
1276306714239,2.88112
1276306774239,2.88816
1276306834239,2.88424
1276306894239,2.89625
1276306954239,2.90214
1276307014239,2.90635
1276307074239,2.90081
1276307134239,2.85473
1276307194239,2.88899
1276307254239,2.91555
1276307314239,2.89615
1276307374239,2.87949
1276307434239,2.89344
1276307494239,2.89079
1276307554239,2.89477
1276307614239,2.86597
1276307674239,2.89294
1276307734239,2.88618
1276307794239,2.93321
1276307854239,2.88103
1276307914239,2.88733
1276307974239,2.90268
1276308034248,2.90883
1276308094248,2.90992
1276308154248,2.89994
1276308214248,2.89710
1276308274248,2.88892
1276308334248,2.88699
1276308394248,2.91661
1276308454248,2.91617
1276308514248,2.90227
1276308574248,2.88687
1276308634248,2.89714
1276308694248,2.90933
1276308754248,2.89954
1276308814248,2.94385
1276308874248,2.90338
1276308934248,2.89006
1276308994248,2.92526
1276309054248,2.92749
1276309114248,2.93063
1276309174248,2.94242
1276309234248,2.91055
1276309294248,2.89884
1276309354248,2.92622
1276309414248,2.90739
1276309474248,2.92092
1276309534248,2.91592
1276309594248,2.92979
1276309654248,2.95262
1276309714248,2.92379
1276309774248,2.90933
1276309834248,2.90397
1276309894248,2.93272
1276309954248,2.92149
1276310014248,2.92718
1276310074248,2.89946
1276310134248,2.92212
1276310194248,2.90588
1276310254248,2.89263
1276310314248,2.92118
1276310374248,2.94571
1276310434248,2.91540
1276310494248,2.91187
1276310554248,2.90411
1276310614248,2.89046
1276310674248,2.87546
1276310734248,2.88878
1276310794248,2.89938
1276310854248,2.88722
1276310914248,2.92404
1276310974248,2.88762
1276311034248,2.91504
1276311094248,2.88398
1276311154248,2.89633
1276311214248,2.88277
1276311274248,2.91663
1276311334248,2.90322
1276311394248,2.92993
1276311454248,2.94299
1276311514248,2.93110
1276311574248,2.91984
1276311634257,2.96893
1276311694257,2.93817
1276311754257,2.91597
1276311814257,2.91465
1276311874257,2.89883
1276311934257,2.90578
1276311994257,2.90569
1276312054257,2.92560
1276312114257,2.88642
1276312174257,2.90904
1276312234257,2.88302
1276312294257,2.90033
1276312354257,2.90495
1276312414257,2.90121
1276312474257,2.89901
1276312534257,2.91845
1276312594257,2.87894
1276312654257,2.91302
1276312714257,2.88512
1276312774257,2.90511
1276312834257,2.90624
1276312894257,2.90140
1276312954257,2.92096
1276313014257,2.89453
1276313074257,2.90704
1276313134257,2.89967
1276313194257,2.89403
1276313254257,2.89448
1276313314257,2.88459
1276313374257,2.90142
1276313434257,2.90514
1276313494257,2.90186
1276313554257,2.87145
1276313614257,2.85314
1276313674257,2.92103
1276313734257,2.89810
1276313794257,2.90521
1276313854257,2.90600
1276313914257,2.89775
1276313974257,2.91303
1276314034257,2.87232
1276314094257,2.90295
1276314154257,2.87911
1276314214257,2.89385
1276314274257,2.89521
1276314334257,2.90532
1276314394257,2.91634
1276314454257,2.90657
1276314514257,2.88600
1276314574257,2.88944
1276314634257,2.87110
1276314694257,2.89194
1276314754257,2.88563
1276314814257,2.90061
1276314874257,2.90706
1276314934257,2.88205
1276314994257,2.87742
1276315054257,2.87329
1276315114257,2.88220
1276315174257,2.91994
1276315234266,2.92185
1276315294266,2.92554
1276315354266,2.97219
1276315414266,2.97924
1276315474266,3.01264
1276315534266,3.01805
1276315594266,3.01801
1276315654266,3.00354
1276315714266,2.98758
1276315774266,2.99874
1276315834266,3.00486
1276315894266,2.98870
1276315954266,2.94815
1276316014266,2.95463
1276316074266,2.97443
1276316134266,2.93502
1276316194266,2.94068
1276316254266,2.94223
1276316314266,2.92543
1276316374266,2.94800
1276316434266,2.92228
1276316494266,2.93170
1276316554266,2.94832
1276316614266,2.92486
1276316674266,2.92252
1276316734266,2.92273
1276316794266,2.92246
1276316854266,2.91681
1276316914266,2.90994
1276316974266,2.89646
1276317034266,2.90611
1276317094266,2.88577
1276317154266,2.90193
1276317214266,2.93127
1276317274266,2.88991
1276317334266,2.92087
1276317394266,2.91699
1276317454266,2.89125
1276317514266,2.90597
1276317574266,2.89142
1276317634266,2.88754
1276317694266,2.93163
1276317754266,2.91792
1276317814266,2.90965
1276317874266,2.93198
1276317934266,2.86689
1276317994266,2.89998
1276318054266,2.88904
1276318114266,2.89201
1276318174266,2.89495
1276318234266,2.92541
1276318294266,2.90987
1276318354266,2.91257
1276318414266,2.89917
1276318474266,2.87332
1276318534266,2.88226
1276318594266,2.90578
1276318654266,2.89713
1276318714266,2.87207
1276318774266,2.91193
1276318834275,2.87086
1276318894275,2.91508
1276318954275,2.88056
1276319014275,2.88263
1276319074275,2.90271
1276319134275,2.88192
1276319194275,2.87428
1276319254275,2.86711
1276319314275,2.87981
1276319374275,2.88821
1276319434275,2.86828
1276319494275,2.90368
1276319554275,2.90545
1276319614275,2.87883
1276319674275,2.87569
1276319734275,2.89650
1276319794275,2.89271
1276319854275,2.87909
1276319914275,2.88004
1276319974275,2.87489
1276320034275,2.91585
1276320094275,2.91330
1276320154275,2.90255
1276320214275,2.90859
1276320274275,2.90821
1276320334275,2.92082
1276320394275,2.93072
1276320454275,2.91553
1276320514275,2.88007
1276320574275,2.88299
1276320634275,2.89522
1276320694275,2.90499
1276320754275,2.92446
1276320814275,2.89757
1276320874275,2.89322
1276320934275,2.90622
1276320994275,2.87653
1276321054275,2.88989
1276321114275,2.89040
1276321174275,2.91502
1276321234275,2.86654
1276321294275,2.91499
1276321354275,2.87528
1276321414275,2.86550
1276321474275,2.91495
1276321534275,2.90360
1276321594275,2.93720
1276321654275,2.87332
1276321714275,2.89922
1276321774275,2.88316
1276321834275,2.89368
1276321894275,2.91176
1276321954275,2.88047
1276322014275,2.88004
1276322074275,2.89970
1276322134275,2.91921
1276322194275,2.88948
1276322254275,2.89287
1276322314275,2.88226
1276322374275,2.90743
1276322434283,2.89408
1276322494283,2.89492
1276322554283,2.88703
1276322614283,2.88962
1276322674283,2.90970
1276322734283,2.89777
1276322794283,2.92042
1276322854283,2.91602
1276322914283,2.97948
1276322974283,2.88895
1276323034283,2.86913
1276323094283,2.90479
1276323154283,2.90438
1276323214283,2.90762
1276323274283,2.90703
1276323334283,2.91349
1276323394283,2.90590
1276323454283,2.91763
1276323514283,2.92778
1276323574283,2.92589
1276323634283,2.93108
1276323694283,2.91331
1276323754283,2.90198
1276323814283,2.91984
1276323874283,2.94499
1276323934283,2.92321
1276323994283,2.94090
1276324054283,2.93778
1276324114283,2.92184
1276324174283,2.94360
1276324234283,2.92885
1276324294283,2.96279
1276324354283,2.93122
1276324414283,2.94986
1276324474283,2.93467
1276324534283,2.93815
1276324594283,2.94923
1276324654283,2.95494
1276324714283,2.91788
1276324774283,2.95437
1276324834283,2.95980
1276324894283,2.95517
1276324954283,2.94811
1276325014283,2.96404
1276325074283,2.94492
1276325134283,2.93450
1276325194283,2.94334
1276325254283,2.96785
1276325314283,2.94048
1276325374283,2.93642
1276325434283,2.94474
1276325494283,2.94401
1276325554283,2.95277
1276325614283,2.93183
1276325674283,2.96643
1276325734283,2.94742
1276325794283,2.92857
1276325854283,2.95414
1276325914283,2.94687
1276325974283,2.95415
1276326034292,2.94750
1276326094292,2.93732
1276326154292,2.95306
1276326214292,2.92571
1276326274292,2.94856
1276326334292,2.97205
1276326394292,2.94609
1276326454292,2.95769
1276326514292,2.96052
1276326574292,2.92917
1276326634292,2.96740
1276326694292,2.95284
1276326754292,2.98251
1276326814292,2.93161
1276326874292,2.93285
1276326934292,2.95909
1276326994292,2.95848
1276327054292,2.96697
1276327114292,2.97630
1276327174292,2.95674
1276327234292,2.97738
1276327294292,2.94851
1276327354292,2.93971
1276327414292,2.97354
1276327474292,2.93223
1276327534292,2.96046
1276327594292,2.94949
1276327654292,2.93545
1276327714292,2.95162
1276327774292,2.96405
1276327834292,2.96857
1276327894292,2.94085
1276327954292,2.95808
1276328014292,2.93846
1276328074292,2.94553
1276328134292,2.95532
1276328194292,2.95547
1276328254292,2.94609
1276328314292,2.97773
1276328374292,2.94149
1276328434292,2.93549
1276328494292,2.95058
1276328554292,2.96769
1276328614292,2.93325
1276328674292,2.95414
1276328734292,2.94519
1276328794292,2.92960
1276328854292,2.94824
1276328914292,2.92048
1276328974292,2.94771
1276329034292,2.92154
1276329094292,2.94267
1276329154292,2.93920
1276329214292,2.92383
1276329274292,2.92825
1276329334292,2.91606
1276329394292,2.93637
1276329454292,2.92953
1276329514292,2.93929
1276329574292,2.93945
1276329634300,2.93635
1276329694300,2.93797
1276329754300,2.93346
1276329814300,2.91476
1276329874300,2.93307
1276329934300,2.93477
1276329994300,2.98038
1276330054300,2.97228
1276330114300,2.92725
1276330174300,2.93154
1276330234300,2.95051
1276330294300,2.95935
1276330354300,2.96381
1276330414300,2.95325
1276330474300,2.96508
1276330534300,2.96253
1276330594300,2.96136
1276330654300,2.96233
1276330714300,2.96482
1276330774300,2.95782
1276330834300,2.96049
1276330894300,2.96374
1276330954300,2.97001
1276331014300,2.94906
1276331074300,2.93942
1276331134300,2.92757
1276331194300,2.93766
1276331254300,2.96932
1276331314300,2.96085
1276331374300,2.93001
1276331434300,2.94733
1276331494300,2.95853
1276331554300,2.94304
1276331614300,2.94254
1276331674300,2.94504
1276331734300,2.93150
1276331794300,2.96045
1276331854300,2.95319
1276331914300,2.94828
1276331974300,2.95641
1276332034300,2.97567
1276332094300,2.97888
1276332154300,2.96167
1276332214300,2.94987
1276332274300,2.94994
1276332334300,2.97650
1276332394300,2.92767
1276332454300,2.93427
1276332514300,2.97202
1276332574300,2.92917
1276332634300,2.97128
1276332694300,2.93842
1276332754300,2.96764
1276332814300,2.95824
1276332874300,2.97476
1276332934300,2.96585
1276332994300,2.93263
1276333054300,2.96532
1276333114300,2.96560
1276333174300,2.94711
1276333234309,2.96160
1276333294309,2.95859
1276333354309,2.97484
1276333414309,2.94690
1276333474309,2.95401
1276333534309,2.97975
1276333594309,2.96106
1276333654309,2.98756
1276333714309,3.05403
1276333774309,3.05948
1276333834309,3.06609
1276333894309,3.03697
1276333954309,3.05052
1276334014309,3.15516
1276334074309,3.29641
1276334134309,3.41517
1276334194309,3.61845
1276334254309,3.80787
1276334314309,3.81529
1276334374309,3.69802
1276334434309,3.55362
1276334494309,3.48159
1276334554309,3.43022
1276334614309,3.31655
1276334674309,3.18016
1276334734309,3.12295
1276334794309,3.11154
1276334854309,3.06083
1276334914309,3.01116
1276334974309,3.02675
1276335034309,2.99026
1276335094309,3.00953
1276335154309,3.00421
1276335214309,2.97429
1276335274309,2.96799
1276335334309,2.96397
1276335394309,2.96345
1276335454309,2.95709
1276335514309,2.95330
1276335574309,2.96178
1276335634309,2.95236
1276335694309,2.94761
1276335754309,2.96392
1276335814309,2.94960
1276335874309,2.96559
1276335934309,2.92776
1276335994309,2.96410
1276336054309,2.95210
1276336114309,2.92281
1276336174309,2.94340
1276336234309,2.95592
1276336294309,2.95218
1276336354309,2.93330
1276336414309,2.94667
1276336474309,2.92570
1276336534309,2.93480
1276336594309,2.97091
1276336654309,2.93483
1276336714309,2.97424
1276336774309,2.93034
1276336834317,2.95249
1276336894317,2.94457
1276336954317,2.92999
1276337014317,2.95297
1276337074317,2.93586
1276337134317,2.93274
1276337194317,2.92277
1276337254317,2.92726
1276337314317,2.92518
1276337374317,2.96411
1276337434317,2.93533
1276337494317,2.91677
1276337554317,2.89087
1276337614317,2.88793
1276337674317,2.94009
1276337734317,2.94184
1276337794317,2.94339
1276337854317,2.92343
1276337914317,2.92702
1276337974317,2.91540
1276338034317,2.92176
1276338094317,2.94813
1276338154317,2.91699
1276338214317,2.91830
1276338274317,2.94979
1276338334317,2.91605
1276338394317,2.93745
1276338454317,2.94728
1276338514317,2.93803
1276338574317,2.94089
1276338634317,2.89464
1276338694317,2.92752
1276338754317,2.88054
1276338814317,2.92228
1276338874317,2.92608
1276338934317,2.93962
1276338994317,2.93084
1276339054317,2.88983
1276339114317,2.92788
1276339174317,2.92677
1276339234317,2.96490
1276339294317,2.92833
1276339354317,2.94949
1276339414317,2.92671
1276339474317,2.93354
1276339534317,2.92611
1276339594317,2.93896
1276339654317,2.92305
1276339714317,2.92418
1276339774317,2.89947
1276339834317,2.91600
1276339894317,2.92919
1276339954317,2.89738
1276340014317,2.95438
1276340074317,2.92656
1276340134317,2.91991
1276340194317,2.90012
1276340254317,2.92965
1276340314317,2.94695
1276340374317,2.91924
1276340434325,2.96913
1276340494325,2.94278
1276340554325,2.93573
1276340614325,2.91479
1276340674325,2.93272
1276340734325,2.93521
1276340794325,2.94154
1276340854325,2.97313
1276340914325,2.93940
1276340974325,2.92591
1276341034325,2.94173
1276341094325,2.91935
1276341154325,2.92910
1276341214325,2.94739
1276341274325,2.93012
1276341334325,2.94200
1276341394325,2.94780
1276341454325,2.91010
1276341514325,2.93721
1276341574325,2.91382
1276341634325,2.91359
1276341694325,2.93523
1276341754325,2.94914
1276341814325,2.93100
1276341874325,2.92208
1276341934325,2.93074
1276341994325,2.95841
1276342054325,2.93672
1276342114325,2.96277
1276342174325,2.93473
1276342234325,2.96537
1276342294325,2.96359
1276342354325,2.93605
1276342414325,3.09295
1276342474325,2.96922
1276342534325,2.95070
1276342594325,2.96482
1276342654325,2.94212
1276342714325,2.94967
1276342774325,2.95391
1276342834325,2.98775
1276342894325,2.97718
1276342954325,2.94094
1276343014325,2.93697
1276343074325,2.94063
1276343134325,2.97685
1276343194325,2.96464
1276343254325,2.97797
1276343314325,2.96601
1276343374325,2.98420
1276343434325,2.97149
1276343494325,2.92841
1276343554325,2.91649
1276343614325,2.95844
1276343674325,2.95314
1276343734325,2.97958
1276343794325,2.95783
1276343854325,2.95127
1276343914325,2.96987
1276343974325,2.95326
1276344034333,2.96191
1276344094333,2.94615
1276344154333,2.93900
1276344214333,2.94147
1276344274333,2.97363
1276344334333,2.94178
1276344394334,2.94406
1276344454334,2.95668
1276344514334,2.95832
1276344574334,2.95345
1276344634333,2.95421
1276344694334,2.93018
1276344754334,2.94014
1276344814334,2.94047
1276344874334,2.93391
1276344934334,2.93710
1276344994334,2.93528
1276345054334,2.93553
1276345114334,2.96426
1276345174334,2.92018
1276345234334,2.97063
1276345294333,2.94026
1276345354333,2.94864
1276345414333,2.93936
1276345474333,2.96111
1276345534333,2.95002
1276345594333,2.95084
1276345654333,2.96436
1276345714334,2.96033
1276345774334,2.93855
1276345834334,2.93063
1276345894334,2.92031
1276345954333,2.95225
1276346014333,2.96624
1276346074334,2.96060
1276346134334,2.93209
1276346194334,2.94700
1276346254334,2.95488
1276346314334,2.93907
1276346374334,2.97775
1276346434334,2.93390
1276346494334,2.95455
1276346554334,2.93100
1276346614333,2.94023
1276346674333,2.95852
1276346734333,2.95186
1276346794333,2.94852
1276346854333,2.95115
1276346914333,2.95252
1276346974333,2.97530
1276347034333,2.99150
1276347094334,2.98935
1276347154334,2.96110
1276347214334,2.99631
1276347274334,2.97719
1276347334333,2.93475
1276347394334,2.93792
1276347454334,2.96133
1276347514334,2.97161
1276347574334,2.95733
1276347634342,2.96714
1276347694342,2.98784
1276347754342,2.97244
1276347814342,2.95352
1276347874342,2.96298
1276347934342,2.99910
1276347994342,2.95451
1276348054342,2.96918
1276348114342,2.96932
1276348174342,2.98271
1276348234342,2.96061
1276348294342,2.97182
1276348354342,2.95798
1276348414342,3.00109
1276348474342,2.98564
1276348534342,2.97950
1276348594342,2.95483
1276348654342,2.97549
1276348714342,2.97994
1276348774342,2.97439
1276348834342,2.99311
1276348894342,2.97703
1276348954342,2.96083
1276349014342,2.96750
1276349074342,2.97386
1276349134342,2.95500
1276349194342,2.99362
1276349254342,2.95788
1276349314342,2.97162
1276349374342,2.98029
1276349434342,2.98563
1276349494342,2.96735
1276349554342,2.96978
1276349614342,2.97347
1276349674342,2.97394
1276349734342,2.99413
1276349794342,2.97262
1276349854342,2.95433
1276349914342,2.95943
1276349974342,2.96793
1276350034342,2.98011
1276350094342,2.98238
1276350154342,2.92755
1276350214342,2.95106
1276350274342,2.96815
1276350334342,2.96302
1276350394342,2.95067
1276350454342,2.97060
1276350514342,2.97724
1276350574342,2.98713
1276350634342,2.98009
1276350694342,2.97110
1276350754342,2.96003
1276350814342,2.97430
1276350874342,2.96881
1276350934342,2.97288
1276350994342,2.96614
1276351054342,2.96268
1276351114342,2.96746
1276351174342,2.98761
1276351234350,2.98182
1276351294350,2.95338
1276351354350,2.95452
1276351414350,2.96685
1276351474350,2.95802
1276351534350,2.94475
1276351594350,2.96223
1276351654350,2.94972
1276351714350,2.97870
1276351774350,2.97130
1276351834350,2.98674
1276351894350,3.00224
1276351954350,2.94247
1276352014350,2.95611
1276352074350,2.99755
1276352134350,3.01479
1276352194350,2.98878
1276352254350,2.99691
1276352314350,2.95912
1276352374350,2.98230
1276352434350,2.97180
1276352494350,2.97506
1276352554350,2.97186
1276352614350,2.97635
1276352674350,2.94920
1276352734350,2.98787
1276352794350,2.98370
1276352854350,2.96919
1276352914350,2.98344
1276352974350,2.98774
1276353034350,2.97114
1276353094350,2.98628
1276353154350,2.99926
1276353214350,2.98098
1276353274350,2.95667
1276353334350,2.95748
1276353394350,2.96415
1276353454350,2.97619
1276353514350,2.97756
1276353574350,2.97601
1276353634350,3.00615
1276353694350,2.95618
1276353754350,2.96304
1276353814350,2.99252
1276353874350,2.97576
1276353934350,2.98295
1276353994350,2.97696
1276354054350,2.98197
1276354114350,2.98302
1276354174350,2.96373
1276354234350,2.96171
1276354294350,2.96433
1276354354350,2.96654
1276354414350,2.96821
1276354474350,2.96937
1276354534350,2.95510
1276354594350,2.96810
1276354654350,2.92175
1276354714350,2.98202
1276354774350,2.94707
1276354834358,2.97573
1276354894358,2.98647
1276354954358,2.97138
1276355014358,2.99434
1276355074358,2.97493
1276355134358,2.92101
1276355194358,2.95802
1276355254358,2.94837
1276355314358,2.97372
1276355374358,2.98901
1276355434358,2.94967
1276355494358,2.99925
1276355554358,2.96170
1276355614358,2.97178
1276355674358,2.96715
1276355734358,2.94628
1276355794358,2.95874
1276355854358,2.96419
1276355914358,2.93083
1276355974358,2.97853
1276356034358,2.97666
1276356094358,2.97291
1276356154358,2.95025
1276356214358,2.96087
1276356274358,2.96535
1276356334358,2.97002
1276356394358,2.96006
1276356454358,2.99382
1276356514358,2.96484
1276356574358,3.00270
1276356634358,2.98098
1276356694358,2.97656
1276356754358,2.97972
1276356814358,2.95013
1276356874358,2.98539
1276356934358,2.97045
1276356994358,2.95468
1276357054358,2.97075
1276357114358,2.97156
1276357174358,2.97606
1276357234358,2.95451
1276357294358,2.94170
1276357354358,2.98535
1276357414358,2.97435
1276357474358,2.96401
1276357534358,2.95758
1276357594358,2.99614
1276357654358,2.98119
1276357714358,2.97096
1276357774358,2.98740
1276357834358,2.97685
1276357894358,2.96373
1276357954358,2.96791
1276358014358,2.96507
1276358074358,2.96018
1276358134358,2.98186
1276358194358,2.96758
1276358254358,2.97343
1276358314358,2.93889
1276358374358,2.94778
1276358434367,2.95013
1276358494367,2.97621
1276358554367,2.95461
1276358614367,2.96111
1276358674367,2.97681
1276358734367,2.96161
1276358794367,2.97477
1276358854367,2.96489
1276358914367,2.95257
1276358974367,2.97413
1276359034367,2.95281
1276359094367,2.95905
1276359154367,2.95010
1276359214367,2.97169
1276359274367,2.94331
1276359334367,2.96459
1276359394367,2.96173
1276359454367,2.97664
1276359514367,2.95123
1276359574367,2.99047
1276359634367,2.96160
1276359694367,2.96117
1276359754367,2.97739
1276359814367,2.98662
1276359874367,2.94531
1276359934367,2.98797
1276359994367,2.95712
1276360054367,2.97301
1276360114367,2.96150
1276360174367,2.99359
1276360234367,2.96961
1276360294367,2.96069
1276360354367,2.96900
1276360414367,2.97133
1276360474367,2.96888
1276360534367,2.96213
1276360594367,2.96934
1276360654367,2.97462
1276360714367,2.95614
1276360774367,2.95409
1276360834367,2.96832
1276360894367,2.95475
1276360954367,2.93810
1276361014367,2.91927
1276361074367,2.93663
1276361134367,2.97768
1276361194367,2.96263
1276361254367,2.99286
1276361314367,2.95768
1276361374367,2.98462
1276361434367,2.95214
1276361494367,2.96652
1276361554367,2.96996
1276361614367,2.96626
1276361674367,2.97751
1276361734367,2.97145
1276361794367,2.95435
1276361854367,2.96758
1276361914367,2.97043
1276361974367,2.96846
1276362034376,2.95731
1276362094376,2.96498
1276362154376,2.97373
1276362214375,2.96590
1276362274376,3.00349
1276362334376,2.99609
1276362394376,2.96513
1276362454376,2.96721
1276362514376,2.97325
1276362574376,2.96961
1276362634376,2.96801
1276362694376,2.94523
1276362754376,2.97175
1276362814376,2.98063
1276362874375,2.98707
1276362934375,2.95898
1276362994375,2.99453
1276363054375,3.00675
1276363114375,2.99727
1276363174375,2.99609
1276363234375,2.96344
1276363294376,2.98891
1276363354376,2.96758
1276363414376,2.98594
1276363474376,3.00453
1276363534376,2.97835
1276363594376,2.96495
1276363654376,2.97285
1276363714376,2.97568
1276363774376,2.98913
1276363834376,2.95209
1276363894376,2.99843
1276363954376,2.97977
1276364014376,2.98648
1276364074376,2.97854
1276364134376,2.99140
1276364194376,2.97271
1276364254375,2.95475
1276364314375,2.97944
1276364374375,2.95916
1276364434375,2.99331
1276364494375,2.93979
1276364554375,2.97023
1276364614376,2.95874
1276364674376,2.96860
1276364734376,2.98057
1276364794376,2.95733
1276364854376,2.96646
1276364914375,2.98260
1276364974376,2.99212
1276365034376,2.97692
1276365094376,2.95165
1276365154376,2.97707
1276365214376,2.97678
1276365274376,2.95115
1276365334376,2.97886
1276365394376,2.97354
1276365454376,2.98683
1276365514376,2.98121
1276365574375,2.98307
1276365634385,2.94053
1276365694385,2.96095
1276365754385,2.96074
1276365814385,2.96034
1276365874385,2.98992
1276365934385,2.93979
1276365994385,2.99167
1276366054385,2.95562
1276366114385,2.97897
1276366174385,2.98923